BOE73M KMCO-LEMD

Flight info

Callsign BOE73M
Flight time N/A
Altitude 35000
Route MZULO3 ETECK DCT KR90W DCT JAINS/M078F350 DCT 37N068W/M078F370 DCT 3760N DCT 3850N/M078F390 DCT 3940N DCT 3930N DCT 4020N DCT ERPES/N0442F400 DCT BARDI M191 RIDAV
Aircraft B737/M-SDE2E3FGHIRWXY/LB1D1

Departure

Time 2026-04-24 13:41
Airport Orlando International Airport (KMCO)

Arrival

Time N/A
Airport Adolfo Suárez Madrid–Barajas Airport (LEMD)
Time Latitude Longitude Altitude Speed Heading
2026-04-24 13:05 28.44758 -81.31713 103 ft 0 kts 169°
2026-04-24 13:23 28.44759 -81.31713 103 ft 3 kts 168°
2026-04-24 13:23 28.44776 -81.31717 103 ft 3 kts 168°
2026-04-24 13:23 28.44793 -81.31721 102 ft 3 kts 182°
2026-04-24 13:24 28.44809 -81.31715 102 ft 3 kts 239°
2026-04-24 13:24 28.44812 -81.31700 102 ft 0 kts 276°
2026-04-24 13:29 28.44813 -81.31707 102 ft 3 kts 275°
2026-04-24 13:29 28.44818 -81.31740 102 ft 5 kts 286°
2026-04-24 13:29 28.44831 -81.31779 102 ft 5 kts 284°
2026-04-24 13:29 28.44836 -81.31821 102 ft 5 kts 277°
2026-04-24 13:30 28.44838 -81.31863 103 ft 5 kts 266°
2026-04-24 13:30 28.44828 -81.31902 102 ft 5 kts 245°
2026-04-24 13:30 28.44794 -81.31908 102 ft 6 kts 170°
2026-04-24 13:30 28.44737 -81.31907 101 ft 11 kts 179°
2026-04-24 13:31 28.44637 -81.31906 100 ft 17 kts 179°
2026-04-24 13:31 28.44533 -81.31904 102 ft 19 kts 180°
2026-04-24 13:31 28.44394 -81.31903 106 ft 21 kts 179°
2026-04-24 13:31 28.44234 -81.31901 105 ft 24 kts 179°
2026-04-24 13:32 28.44072 -81.31894 107 ft 23 kts 173°
2026-04-24 13:32 28.43952 -81.31861 106 ft 10 kts 160°
2026-04-24 13:32 28.43922 -81.31798 105 ft 10 kts 88°
2026-04-24 13:32 28.43922 -81.31706 103 ft 15 kts 89°
2026-04-24 13:33 28.43924 -81.31568 102 ft 21 kts 89°
2026-04-24 13:33 28.43926 -81.31401 100 ft 21 kts 88°
2026-04-24 13:33 28.43935 -81.31238 109 ft 20 kts 88°
2026-04-24 13:33 28.43941 -81.31080 114 ft 20 kts 88°
2026-04-24 13:34 28.43943 -81.30904 100 ft 19 kts 91°
2026-04-24 13:34 28.43943 -81.30907 99 ft 4 kts 90°
2026-04-24 13:34 28.43944 -81.30885 107 ft 4 kts 86°
2026-04-24 13:34 28.43943 -81.30866 115 ft 5 kts 96°
2026-04-24 13:35 28.43940 -81.30800 127 ft 13 kts 93°
2026-04-24 13:35 28.43934 -81.30694 120 ft 13 kts 94°
2026-04-24 13:35 28.43926 -81.30571 98 ft 24 kts 93°
2026-04-24 13:35 28.43914 -81.30384 100 ft 23 kts 93°
2026-04-24 13:36 28.43906 -81.30205 102 ft 22 kts 93°
2026-04-24 13:36 28.43898 -81.30038 102 ft 17 kts 96°
2026-04-24 13:36 28.43863 -81.29915 102 ft 16 kts 126°
2026-04-24 13:36 28.43779 -81.29832 102 ft 16 kts 149°
2026-04-24 13:37 28.43676 -81.29807 101 ft 15 kts 176°
2026-04-24 13:37 28.43583 -81.29805 103 ft 12 kts 168°
2026-04-24 13:37 28.43550 -81.29756 102 ft 8 kts 91°
2026-04-24 13:37 28.43551 -81.29693 101 ft 8 kts 88°
2026-04-24 13:38 28.43549 -81.29633 101 ft 8 kts 92°
2026-04-24 13:38 28.43540 -81.29582 103 ft 5 kts 131°
2026-04-24 13:38 28.43505 -81.29584 103 ft 5 kts 201°
2026-04-24 13:38 28.43481 -81.29587 104 ft 0 kts 179°
2026-04-24 13:40 28.43451 -81.29586 105 ft 14 kts 179°
2026-04-24 13:40 28.43130 -81.29583 105 ft 83 kts 179°
2026-04-24 13:40 28.42316 -81.29575 98 ft 148 kts 180°
2026-04-24 13:40 28.41126 -81.29574 275 ft 185 kts 180°
2026-04-24 13:41 28.39784 -81.29581 909 ft 201 kts 178°
2026-04-24 13:41 28.38360 -81.29371 1527 ft 214 kts 160°
2026-04-24 13:41 28.37001 -81.28463 1729 ft 235 kts 142°
2026-04-24 13:41 28.35657 -81.27270 2005 ft 254 kts 140°
2026-04-24 13:42 28.34325 -81.25949 2693 ft 256 kts 135°
2026-04-24 13:42 28.33085 -81.24485 3424 ft 258 kts 134°
2026-04-24 13:42 28.31946 -81.23143 4069 ft 260 kts 135°
2026-04-24 13:42 28.30657 -81.21678 4736 ft 264 kts 135°
2026-04-24 13:43 28.29340 -81.20191 5395 ft 269 kts 135°
2026-04-24 13:43 28.28010 -81.18672 6066 ft 273 kts 135°
2026-04-24 13:43 28.26714 -81.17075 6717 ft 278 kts 123°
2026-04-24 13:43 28.26135 -81.15000 7391 ft 281 kts 89°
2026-04-24 13:44 28.26577 -81.12860 8139 ft 282 kts 64°
2026-04-24 13:44 28.27649 -81.10989 8853 ft 285 kts 52°
2026-04-24 13:44 28.28895 -81.09214 9542 ft 289 kts 51°
2026-04-24 13:44 28.30183 -81.07437 10204 ft 295 kts 51°
2026-04-24 13:45 28.31524 -81.05581 10451 ft 316 kts 51°
2026-04-24 13:45 28.32961 -81.03572 10634 ft 338 kts 51°
2026-04-24 13:45 28.34461 -81.01455 10796 ft 359 kts 51°
2026-04-24 13:45 28.36060 -80.99183 11085 ft 374 kts 51°
2026-04-24 13:46 28.37700 -80.96840 11592 ft 382 kts 51°
2026-04-24 13:46 28.39360 -80.94463 12186 ft 387 kts 51°
2026-04-24 13:46 28.41038 -80.92056 12827 ft 390 kts 51°
2026-04-24 13:46 28.42732 -80.89626 13452 ft 393 kts 51°
2026-04-24 13:47 28.44440 -80.87175 14076 ft 397 kts 51°
2026-04-24 13:47 28.46106 -80.84651 14696 ft 402 kts 57°
2026-04-24 13:47 28.47373 -80.81804 15319 ft 406 kts 68°
2026-04-24 13:47 28.48177 -80.78714 15919 ft 410 kts 79°
2026-04-24 13:48 28.48580 -80.75490 16527 ft 414 kts 83°
2026-04-24 13:48 28.48915 -80.72223 17072 ft 419 kts 83°
2026-04-24 13:48 28.49244 -80.68907 17589 ft 424 kts 83°
2026-04-24 13:48 28.49582 -80.65568 18136 ft 427 kts 83°
2026-04-24 13:49 28.49933 -80.62236 18655 ft 431 kts 83°
2026-04-24 13:49 28.50299 -80.58838 19174 ft 435 kts 83°
2026-04-24 13:49 28.50675 -80.55408 19664 ft 439 kts 83°
2026-04-24 13:49 28.51056 -80.51950 20139 ft 443 kts 83°
2026-04-24 13:50 28.51440 -80.48466 20632 ft 446 kts 83°
2026-04-24 13:50 28.51826 -80.44952 21116 ft 450 kts 83°
2026-04-24 13:50 28.52214 -80.41403 21564 ft 453 kts 83°
2026-04-24 13:50 28.52605 -80.37823 21988 ft 457 kts 83°
2026-04-24 13:51 28.52992 -80.34261 22394 ft 460 kts 83°
2026-04-24 13:51 28.53427 -80.30643 22796 ft 463 kts 79°
2026-04-24 13:51 28.54236 -80.27090 23162 ft 467 kts 69°
2026-04-24 13:51 28.55476 -80.23666 23556 ft 469 kts 66°
2026-04-24 13:52 28.56800 -80.20263 23920 ft 472 kts 65°
2026-04-24 13:52 28.58149 -80.16840 24258 ft 476 kts 65°
2026-04-24 13:52 28.59501 -80.13383 24622 ft 478 kts 65°
2026-04-24 13:52 28.60841 -80.09915 25033 ft 479 kts 66°
2026-04-24 13:53 28.62175 -80.06422 25457 ft 480 kts 66°
2026-04-24 13:53 28.63483 -80.02970 25799 ft 482 kts 66°
2026-04-24 13:53 28.64815 -79.99441 26109 ft 485 kts 67°
2026-04-24 13:53 28.66152 -79.95890 26415 ft 488 kts 67°
2026-04-24 13:54 28.67490 -79.92333 26715 ft 490 kts 67°
2026-04-24 13:54 28.68835 -79.88756 27037 ft 492 kts 67°
2026-04-24 13:54 28.70180 -79.85175 27359 ft 494 kts 67°
2026-04-24 13:54 28.71536 -79.81566 27670 ft 495 kts 68°
2026-04-24 13:55 28.72896 -79.77943 27983 ft 496 kts 68°
2026-04-24 13:55 28.74253 -79.74326 28277 ft 498 kts 68°
2026-04-24 13:55 28.75599 -79.70731 28572 ft 499 kts 68°
2026-04-24 13:55 28.76959 -79.67099 28988 ft 497 kts 68°
2026-04-24 13:56 28.78310 -79.63486 29460 ft 494 kts 68°
2026-04-24 13:56 28.79655 -79.59887 29905 ft 491 kts 68°
2026-04-24 13:56 28.81058 -79.56328 30231 ft 492 kts 64°
2026-04-24 13:56 28.82846 -79.52990 30521 ft 494 kts 55°
2026-04-24 13:57 28.84841 -79.49822 30923 ft 491 kts 54°
2026-04-24 13:57 28.86864 -79.46689 31318 ft 489 kts 54°
2026-04-24 13:57 28.88885 -79.43565 31628 ft 489 kts 54°
2026-04-24 13:57 28.90899 -79.40429 31927 ft 488 kts 54°
2026-04-24 13:58 28.92893 -79.37292 32263 ft 487 kts 54°
2026-04-24 13:58 28.94866 -79.34162 32580 ft 485 kts 54°
2026-04-24 13:58 28.96832 -79.31027 32848 ft 485 kts 54°
2026-04-24 13:58 28.98791 -79.27895 33127 ft 484 kts 54°
2026-04-24 13:59 29.00724 -79.24798 33428 ft 483 kts 54°
2026-04-24 13:59 29.02667 -79.21685 33692 ft 482 kts 54°
2026-04-24 13:59 29.04614 -79.18565 33919 ft 482 kts 54°
2026-04-24 13:59 29.06560 -79.15445 34125 ft 482 kts 54°
2026-04-24 14:00 29.08506 -79.12324 34356 ft 481 kts 54°
2026-04-24 14:00 29.10448 -79.09208 34603 ft 480 kts 54°
2026-04-24 14:00 29.12386 -79.06094 34811 ft 480 kts 54°
2026-04-24 14:00 29.14323 -79.02981 35005 ft 480 kts 54°
2026-04-24 14:01 29.18202 -78.96740 35040 ft 480 kts 54°
2026-04-24 14:01 29.22065 -78.90515 35044 ft 479 kts 54°
2026-04-24 14:02 29.25885 -78.84349 35049 ft 478 kts 54°
2026-04-24 14:02 29.29731 -78.78131 35044 ft 478 kts 54°
2026-04-24 14:03 29.33577 -78.71905 35051 ft 478 kts 54°
2026-04-24 14:03 29.37430 -78.65675 35048 ft 479 kts 53°
2026-04-24 14:04 29.41441 -78.59570 35049 ft 480 kts 52°
2026-04-24 14:04 29.45486 -78.53468 35048 ft 480 kts 52°
2026-04-24 14:05 29.49716 -78.47532 35037 ft 480 kts 42°
2026-04-24 14:05 29.54807 -78.42668 35046 ft 479 kts 37°
2026-04-24 14:06 29.60018 -78.37889 35049 ft 480 kts 38°
2026-04-24 14:06 29.65209 -78.33046 35046 ft 480 kts 38°
2026-04-24 14:07 29.70371 -78.28168 35052 ft 480 kts 38°
2026-04-24 14:07 29.75524 -78.23281 35056 ft 480 kts 38°
2026-04-24 14:08 29.80678 -78.18390 35056 ft 480 kts 38°
2026-04-24 14:08 29.85836 -78.13491 35054 ft 479 kts 38°
2026-04-24 14:09 29.90947 -78.08630 35054 ft 479 kts 38°
2026-04-24 14:09 29.96089 -78.03732 35056 ft 479 kts 38°
2026-04-24 14:10 30.01291 -77.98930 35047 ft 478 kts 33°
2026-04-24 14:10 30.06883 -77.94802 35049 ft 477 kts 30°
2026-04-24 14:11 30.12562 -77.90803 35046 ft 477 kts 30°
2026-04-24 14:12 30.20980 -77.84758 35040 ft 477 kts 31°
2026-04-24 14:12 30.26603 -77.80659 35037 ft 477 kts 31°
2026-04-24 14:13 30.32211 -77.76557 35035 ft 477 kts 31°
2026-04-24 14:13 30.36877 -77.73142 35039 ft 476 kts 31°
2026-04-24 14:14 30.42487 -77.69034 35035 ft 476 kts 31°
2026-04-24 14:14 30.50877 -77.62879 35037 ft 475 kts 31°
2026-04-24 14:15 30.56436 -77.58795 35039 ft 475 kts 31°
2026-04-24 14:15 30.62008 -77.54695 35038 ft 474 kts 31°
2026-04-24 14:16 30.67578 -77.50591 35028 ft 473 kts 31°
2026-04-24 14:17 30.75915 -77.44437 35028 ft 472 kts 31°
2026-04-24 14:17 30.84227 -77.38289 35028 ft 471 kts 31°
2026-04-24 14:18 30.89723 -77.34217 35030 ft 470 kts 31°
2026-04-24 14:18 30.95244 -77.30121 35021 ft 470 kts 31°
2026-04-24 14:19 31.00750 -77.26030 35017 ft 469 kts 31°
2026-04-24 14:19 31.06251 -77.21937 35018 ft 469 kts 31°
2026-04-24 14:20 31.11745 -77.17843 35018 ft 468 kts 31°
2026-04-24 14:20 31.17240 -77.13743 35018 ft 467 kts 31°
2026-04-24 14:21 31.22716 -77.09652 35018 ft 467 kts 31°
2026-04-24 14:21 31.28186 -77.05558 35018 ft 467 kts 31°
2026-04-24 14:22 31.33655 -77.01445 35019 ft 467 kts 33°
2026-04-24 14:22 31.38416 -76.96286 35023 ft 469 kts 49°
2026-04-24 14:23 31.40469 -76.93372 35020 ft 470 kts 49°
2026-04-24 14:23 31.44579 -76.87407 35020 ft 470 kts 49°
2026-04-24 14:24 31.48705 -76.81453 35016 ft 470 kts 49°
2026-04-24 14:24 31.52853 -76.75525 35018 ft 470 kts 49°
2026-04-24 14:25 31.57011 -76.69605 35019 ft 470 kts 49°
2026-04-24 14:25 31.61160 -76.63690 35013 ft 468 kts 49°
2026-04-24 14:26 31.65243 -76.57859 35004 ft 463 kts 49°
2026-04-24 14:26 31.69320 -76.52025 35005 ft 460 kts 49°